Total_Precipitation_Accumulation
1.41 1.31 1.80 1.70 1.48 1.44 1.38 1.36 1.28 1.17 1.06 0.94 0.84 0.74 0.68 0.65 0.64 0.66 0.63 0.54 0.52 0.52 0.49 0.55 0.62 0.54 0.54 0.53 0.53 0.58 0.64 0.67 0.62 0.54 0.56 0.57 0.56 0.66 0.83 0.97 1.13 1.17 1.01
1.08 1.25 1.90 1.84 1.62 1.50 1.41 1.37 1.28 1.08 0.91 0.83 0.75 0.67 0.61 0.60 0.63 0.60 0.54 0.51 0.49 0.46 0.47 0.58 0.65 0.63 0.63 0.67 0.71 0.76 0.80 0.75 0.66 0.62 0.76 0.80 0.72 0.76 0.85 0.99 1.30 1.24 0.95
0.96 1.11 1.53 1.94 1.78 1.54 1.41 1.34 1.27 1.11 0.83 0.72 0.67 0.63 0.56 0.51 0.51 0.51 0.49 0.45 0.47 0.46 0.47 0.55 0.63 0.61 0.64 0.70 0.79 0.79 0.81 0.79 0.71 0.80 1.26 1.78 1.35 1.01 0.90 1.02 1.13 1.02 0.88
0.89 1.01 1.24 1.76 1.68 1.51 1.42 1.28 1.34 1.15 0.86 0.73 0.69 0.63 0.54 0.49 0.52 0.59 0.59 0.51 0.48 0.47 0.45 0.50 0.61 0.58 0.57 0.64 0.68 0.66 0.70 0.76 0.83 1.09 1.67 2.11 1.87 1.35 1.17 1.08 1.03 0.96 0.87
0.86 1.00 1.45 1.80 1.52 1.36 1.26 1.25 1.35 1.21 1.01 0.87 0.75 0.65 0.58 0.54 0.55 0.63 0.59 0.57 0.55 0.52 0.52 0.57 0.63 0.60 0.53 0.51 0.53 0.55 0.68 0.92 1.13 1.21 1.53 1.79 1.92 1.59 1.30 1.12 1.07 1.02 1.02
0.84 0.98 1.29 1.48 1.37 1.27 1.23 1.20 1.20 1.21 1.19 0.99 0.81 0.73 0.72 0.69 0.68 0.71 0.70 0.63 0.63 0.63 0.65 0.64 0.62 0.61 0.57 0.56 0.54 0.60 0.77 1.02 1.17 1.27 1.53 1.70 1.72 1.48 1.23 1.13 1.17 1.26 1.29
0.72 0.84 1.03 1.24 1.18 1.13 1.12 1.14 1.09 1.14 1.21 1.07 0.83 0.82 0.86 0.77 0.77 0.79 0.80 0.70 0.69 0.67 0.68 0.70 0.64 0.63 0.61 0.61 0.62 0.70 0.80 0.88 0.94 1.19 1.53 1.77 1.55 1.33 1.25 1.13 1.15 1.37 1.50
0.82 0.80 0.85 1.03 1.08 1.03 1.04 1.11 1.02 1.03 1.12 1.07 0.96 0.90 0.82 0.81 0.83 0.85 0.80 0.76 0.72 0.72 0.73 0.74 0.73 0.68 0.65 0.65 0.67 0.77 0.84 0.80 0.74 0.91 1.12 1.58 1.78 1.60 1.28 1.10 1.15 1.27 1.44
1.19 1.07 0.85 0.77 0.80 0.85 1.00 1.12 1.09 1.04 1.04 1.00 1.04 0.98 0.94 0.91 0.86 0.80 0.79 0.79 0.78 0.79 0.81 0.77 0.73 0.70 0.69 0.68 0.67 0.74 0.82 0.82 0.81 0.86 0.90 1.39 1.77 1.68 1.31 1.10 1.10 1.33 1.45
1.18 1.12 0.95 0.83 0.80 0.81 0.77 0.94 1.14 1.19 1.13 1.03 1.01 1.00 0.99 0.93 0.84 0.79 0.73 0.75 0.81 0.84 0.89 0.89 0.81 0.79 0.75 0.71 0.71 0.77 0.84 0.76 0.68 0.70 0.87 1.22 1.71 1.75 1.52 1.13 0.96 1.03 1.14
0.97 0.95 0.92 0.90 0.92 0.98 0.98 0.96 1.18 1.26 1.18 0.99 0.90 0.93 0.94 0.79 0.82 0.83 0.73 0.86 0.88 0.94 0.98 0.98 0.93 0.89 0.79 0.73 0.80 0.90 0.79 0.62 0.71 0.71 0.89 1.21 1.57 1.68 1.59 1.27 0.94 0.88 0.95
0.80 0.75 0.71 0.73 0.80 0.91 0.99 1.33 1.53 1.33 1.21 0.95 0.94 0.83 0.89 0.96 1.03 0.86 0.80 0.97 1.01 1.07 1.05 1.04 1.08 0.99 0.80 0.64 0.72 0.81 0.70 0.67 0.68 0.64 0.86 1.25 1.48 1.56 1.48 1.31 1.06 0.92 0.95
0.62 0.55 0.52 0.49 0.51 0.60 0.80 1.14 1.43 1.55 1.52 1.43 1.19 0.96 0.97 0.85 0.74 0.68 0.70 0.81 0.89 0.98 0.95 0.97 0.99 0.84 0.74 0.69 0.63 0.61 0.72 0.68 0.73 0.77 0.98 1.28 1.42 1.53 1.50 1.34 1.16 1.06 1.05
0.58 0.55 0.48 0.46 0.42 0.44 0.53 0.70 0.90 1.04 1.14 1.16 1.01 0.91 0.98 0.87 0.76 0.76 0.76 0.76 0.76 0.86 0.98 1.00 0.95 0.84 0.74 0.64 0.61 0.65 0.69 0.67 0.80 1.02 1.19 1.14 1.27 1.49 1.57 1.45 1.30 1.20 1.16
0.65 0.68 0.61 0.50 0.45 0.44 0.48 0.56 0.63 0.78 0.87 0.90 0.92 0.88 0.91 0.92 0.89 0.86 0.78 0.78 0.72 0.79 0.90 0.99 0.94 0.85 0.81 0.75 0.71 0.78 0.81 0.86 0.88 0.97 1.06 1.06 1.20 1.49 1.71 1.71 1.51 1.32 1.25
0.69 0.69 0.69 0.59 0.55 0.50 0.48 0.51 0.55 0.65 0.74 0.78 0.76 0.76 0.86 0.94 0.94 0.91 0.86 0.87 0.84 0.86 0.97 0.96 0.89 0.94 0.94 0.87 0.74 0.74 0.81 0.87 0.92 0.92 0.95 1.06 1.13 1.21 1.57 1.80 1.81 1.59 1.51
0.67 0.65 0.64 0.64 0.64 0.62 0.60 0.59 0.57 0.64 0.74 0.76 0.73 0.68 0.70 0.78 0.84 0.87 0.88 0.88 0.92 1.01 1.07 1.08 0.92 0.96 0.93 0.84 0.79 0.73 0.72 0.74 0.79 0.85 0.82 0.82 0.90 1.02 1.29 1.65 1.89 1.80 1.67
0.53 0.52 0.56 0.57 0.61 0.68 0.71 0.72 0.73 0.73 0.80 0.77 0.76 0.69 0.64 0.69 0.77 0.90 0.91 0.89 0.92 1.05 1.14 1.17 1.08 1.05 1.00 0.96 0.92 0.84 0.76 0.78 0.76 0.82 0.83 0.76 0.89 0.84 1.01 1.19 1.42 1.61 1.68
0.45 0.44 0.47 0.51 0.53 0.64 0.73 0.76 0.84 0.86 0.87 0.85 0.84 0.74 0.71 0.77 0.84 1.01 1.11 1.13 1.13 1.14 1.14 1.08 1.14 1.14 1.12 1.11 1.03 0.97 0.88 0.82 0.86 0.80 0.83 0.85 0.80 0.84 0.93 0.81 0.89 1.02 1.34
0.35 0.36 0.40 0.45 0.48 0.55 0.70 0.82 0.97 1.09 1.05 1.07 1.01 0.89 0.91 1.05 1.19 1.33 1.33 1.40 1.47 1.36 1.33 1.26 1.26 1.23 1.16 1.20 1.09 0.98 0.91 0.82 0.90 0.94 0.93 0.93 0.89 0.82 0.91 0.86 0.81 0.73 0.89
0.24 0.27 0.33 0.37 0.44 0.53 0.61 0.75 0.96 1.24 1.35 1.44 1.40 1.22 1.16 1.28 1.52 1.73 1.69 1.74 1.78 1.66 1.63 1.67 1.86 1.82 1.55 1.31 1.34 1.17 0.99 0.83 0.96 1.00 0.98 0.99 1.01 1.07 1.11 1.00 0.86 0.84 0.73
0.17 0.18 0.24 0.32 0.42 0.51 0.60 0.77 0.94 1.08 1.08 1.26 1.41 1.39 1.30 1.29 1.44 1.58 1.83 1.93 1.86 1.89 2.01 2.02 2.35 2.50 2.07 1.64 1.63 1.74 1.48 1.26 1.01 0.89 0.94 0.96 1.06 1.25 1.24 1.05 0.95 0.86 0.80
0.12 0.13 0.18 0.25 0.35 0.48 0.64 0.87 1.09 1.27 1.36 1.42 1.35 1.43 1.44 1.37 1.41 1.51 1.67 1.83 1.84 1.91 2.01 2.13 2.45 2.91 2.68 2.14 1.90 2.09 1.79 1.58 1.39 1.06 0.92 0.94 1.06 1.26 1.37 1.28 1.18 1.10 0.94
0.11 0.10 0.14 0.23 0.38 0.59 0.80 1.06 1.31 1.51 1.55 1.44 1.48 1.51 1.40 1.34 1.31 1.37 1.51 1.66 1.78 1.81 1.94 2.04 2.16 2.62 2.95 2.63 2.34 1.99 1.66 1.58 1.68 1.50 1.16 1.07 1.12 1.20 1.27 1.22 1.19 1.29 1.20
0.18 0.19 0.26 0.46 0.71 0.96 1.18 1.43 1.72 1.72 1.61 1.51 1.51 1.48 1.42 1.43 1.40 1.39 1.54 1.61 1.63 1.69 1.79 2.12 2.38 2.63 2.82 2.76 2.65 2.47 2.21 1.92 1.58 1.70 1.64 1.39 1.25 1.17 1.20 1.24 1.24 1.27 1.28
0.48 0.62 0.82 1.09 1.28 1.36 1.49 1.64 1.76 1.73 1.74 1.68 1.50 1.40 1.40 1.44 1.49 1.54 1.60 1.61 1.58 1.61 1.72 1.94 2.22 2.43 2.74 2.90 2.79 2.57 2.43 2.30 2.08 1.93 1.71 1.60 1.56 1.33 1.26 1.26 1.21 1.24 1.33